Regional Weather Roundup
Issued by NWS

Home | Current Version | Previous Version | Graphics & Text | Print | Product List | Glossary On
Versions: 1 2 3 4 5 6 7 8 9 10 11 12 13 14 15 16 17 18 19 20 21 22 23 24 25 26 27 28 29 30 31 32 33 34 35 36 37 38 39 40 41 42 43 44 45 46 47 48 49 50
000
ASUS45 KSLC 290610
RWRUT

UTAH REGIONAL WEATHER ROUNDUP
NATIONAL WEATHER SERVICE SALT LAKE CITY UT
1200 AM MDT WED JUL 29 2015

UTZ001>011-023>025-290700-

NORTHERN UTAH

CITY           SKY/WX    TMP DP  RH WIND       PRES   REMARKS
BRIGHAM CITY   CLEAR     62  34  34 NW3       30.25S
HILL AFB       NOT AVBL
LOGAN          CLEAR     53  40  61 CALM      30.28R
OGDEN          CLEAR     59  29  31 S7        30.24S
PROVO AIRPORT  CLEAR     61  37  41 CALM      30.26R
SALT LAKE CITY CLEAR     63  30  28 SE7       30.24S
VERNAL         CLEAR     67  17  14 N8        30.24R
WENDOVER       CLEAR     64  25  22 SW5       30.26R
HEBER CITY     CLEAR     46  32  57 SE3       30.31R
WEST JORDAN    CLEAR     61  30  31 CALM      30.27R

$$

UTZ012>022-026-027-290700-

SOUTHERN/CENTRAL UTAH

CITY           SKY/WX    TMP DP  RH WIND       PRES   REMARKS
BLANDING       MOCLDY    65  28  24 NW5       30.27F
BRYCE CANYON   CLEAR     58  27  30 N10       30.39S
CEDAR CITY     CLEAR     63  28  26 N7        30.23R
DELTA          CLEAR     64  25  23 N3        30.24R
HANKSVILLE     CLEAR     72  25  17 N6        30.15S
MILFORD        CLEAR     66  24  20 N15       30.22R
MOAB/CYNLANDS  CLEAR     70  27  20 NW3       30.12R
PRICE          CLEAR     66  24  20 CALM      30.27R
ST GEORGE      CLEAR     86  28  12 N6        30.01R
KANAB          CLEAR     73  32  21 N13       30.20S

$$

REGIONAL REPORTS     COLORADO/ARIZONA

CITY           SKY/WX    TMP DP  RH WIND       PRES   REMARKS
CRAIG, CO      CLEAR     52  32  46 CALM      30.31R
GRAND JUNCTION CLEAR     74  31  20 W5        30.15R
RIFLE          CLEAR     61  34  36 NE6       30.23R
MONTROSE       CLEAR     65  39  38 SE10      30.24R
CORTEZ         CLEAR     59  34  39 NE8       30.22R
PAGE, AZ       CLEAR     85  18   8 W7        30.07R
GRAND CANYON   PTCLDY    56  25  30 CALM      30.28R
KINGMAN        CLEAR     75  35  23 NE3       30.04R
FLAGSTAFF      MOCLDY    63  39  41 CALM      30.33R

$$

REGIONAL REPORTS    NEVADA/IDAHO/WYOMING

CITY           SKY/WX    TMP DP  RH WIND       PRES   REMARKS
LAS VEGAS, NV  CLEAR     93  29  10 SW5       29.88R
ELY            CLEAR     60  23  24 N14       30.30R
ELKO           CLEAR     61  23  23 E7        30.24R
POCATELLO, ID  CLEAR     50  37  61 CALM      30.29F
BURLEY         CLEAR     52  39  61 S5        30.26S
EVANSTON, WY   CLEAR     52  28  39 NE6       30.41R
ROCK SPRINGS   CLEAR     54  19  25 SW7       30.36S
KEMMERER       CLEAR     45  30  57 NW13      30.41S

$$



USA.gov is the U.S. government's official web portal to all federal, state and local government web resources and services.